Location: Blackwall
(51.5097°N, 0.0016°W)
Time: 03:38:19
(UTC+00:00)

Cosmos 1763 Rocket - Pass Details

Date: 15 May 2026
Orbit: 728 x 773 km, 74.0° (Epoch: 8 June)

Event Time Altitude Azimuth Distance (km) Brightness Sun altitude
Exits shadow 21:10:52 13° 155° (SSE) 2,093 5.1 -10.7°
Maximum altitude 21:14:39 29° 101° (E) 1,386 4.4 -11.1°
Drops below altitude 10° 21:19:09 10° 42° (NE) 2,321 6.1 -11.5°
Sets 21:21:47 0° 32° (NNE) 3,247 7.0 -11.8°
